Regional Weather Roundup
Issued by NWS

Home | Current Version | Previous Version | Graphics & Text | Print | Product List | Glossary On
Versions: 1 2 3 4 5 6 7 8 9 10 11 12 13 14 15 16 17 18 19 20 21 22 23 24 25 26 27 28 29 30 31 32 33 34 35 36 37 38 39 40 41 42 43 44 45 46 47 48 49 50
000
ASUS43 KOAX 301002
RWRNE

WEATHER ROUNDUP FOR NEBRASKA
NATIONAL WEATHER SERVICE OMAHA NE
500 AM CDT MON MAY 30 2016

NOTES: SATELLITE DATA IS BEING USED TO AUGMENT CLOUD COVER ABOVE
       12000 FEET.
       "FAIR" INDICATES FEW OR NO CLOUDS BELOW 12,000 FEET WITH NO
       SIGNIFICANT WEATHER AND/OR OBSTRUCTIONS TO VISIBILITY.

  * THESE STATIONS DO NOT REPORT WEATHER SUCH AS RAIN...SNOW OR FOG.

NEZ001>004-019>022-054>056-301100-
NEBRASKA PANHANDLE

CITY           SKY/WX    TMP DP  RH WIND       PRES   REMARKS
SCOTTSBLUFF    CLOUDY    52  48  86 SE7       30.00F
ALLIANCE       CLOUDY    56  49  77 SW13      29.98F
CHADRON        PTCLDY    59  50  72 VRB6      29.93F
SIDNEY         CLOUDY    54  49  83 S15       30.03F
$$

NEZ057>060-069>072-079>082-301100-
SOUTHWEST NEBRASKA

CITY           SKY/WX    TMP DP  RH WIND       PRES   REMARKS
NORTH PLATTE   PTCLDY    56  51  84 E3        29.99R
IMPERIAL       MOCLDY    58  51  78 SW10      29.99F
LEXINGTON      PTCLDY    59  52  77 SW5       29.98R
MCCOOK         PTCLDY    61  50  67 S3        29.95F
$$

NEZ005>010-023>029-035>040-094-301100-
NORTH CENTRAL NEBRASKA

CITY           SKY/WX    TMP DP  RH WIND       PRES   REMARKS
VALENTINE      MOCLDY    55  50  83 CALM      29.94F
AINSWORTH      CLOUDY    55  52  88 SE5       29.97S
BROKEN BOW     PTCLDY    60  53  77 CALM      29.97F
ORD            CLOUDY    58  54  86 CALM      29.95F
$$

NEZ041-046>049-061>064-073>077-083>087-301100-
SOUTH CENTRAL NEBRASKA

CITY           SKY/WX    TMP DP  RH WIND       PRES   REMARKS
GRAND ISLAND   CLOUDY    60  54  80 W6        30.01R
HASTINGS       CLEAR     59  53  80 W6        30.00R
KEARNEY *      CLOUDY    59  52  77 S8        30.00R
YORK           PTCLDY    63  54  72 CALM      29.99R
$$

NEZ011>018-030>034-042>045-301100-
NORTHEAST NEBRASKA

CITY           SKY/WX    TMP DP  RH WIND       PRES   REMARKS
NORFOLK        MOCLDY    64  54  69 NE3       29.99R
BLAIR          PTCLDY    64  59  83 CALM      29.98S
FREMONT        CLEAR     61  58  90 CALM      29.99S
TEKAMAH          N/A    N/A N/A N/A MISG      29.98R
$$

NEZ050>053-065>068-078-088>093-301100-
SOUTHEAST NEBRASKA

CITY           SKY/WX    TMP DP  RH WIND       PRES   REMARKS
LINCOLN        CLEAR     62  57  83 CALM      29.99S
OMAHA EPPLEY   PTCLDY    64  59  83 SE3       29.97F
FALLS CITY     CLEAR     65  63  93 S8        29.99S
PLATTSMOUTH    CLEAR     65  63  92 SE5       29.99F
$$

NEZ044-045-051>053-067-301100-
OMAHA AREA

CITY           SKY/WX    TMP DP  RH WIND       PRES   REMARKS
OMAHA EPPLEY   PTCLDY    64  59  83 SE3       29.97F
BLAIR          PTCLDY    64  59  83 CALM      29.98S
FREMONT        CLEAR     61  58  90 CALM      29.99S
OFFUTT AFB     CLEAR     64  62  91 S6        29.97F
PLATTSMOUTH    CLEAR     65  63  92 SE5       29.99F
$$



USA.gov is the U.S. government's official web portal to all federal, state and local government web resources and services.